This demonstration page uses our WeatherBlox Daily Observations layout. Learn more.

Hourly Observations for August 22, 2017

Temp ( °F °C ) Dew Point ( °F °C ) Humidity (%) Winds ( mph kmh ) Pressure ( in mb ) Visibility ( mi km ) Precip ( " mm )
12:15 am 00:15 Clear 73 23 72 22 94 94 Calm 30.12 1020 10 16.09344 0 0
12:35 am 00:35 Clear 73 23 72 22 94 94 Calm 30.12 1020 10 16.09344 0 0
12:55 am 00:55 Clear 73 23 72 22 94 94 Calm 30.12 1020 10 16.09344 0 0
1:15 am 01:15 Clear 73 23 72 22 94 94 Calm 30.12 1020 10 16.09344 0 0
1:35 am 01:35 Clear 73 23 72 22 94 94 Calm 30.12 1020 10 16.09344 0 0
1:55 am 01:55 Clear 73 23 72 22 94 94 Calm 30.12 1020 10 16.09344 0 0
2:15 am 02:15 Clear 73 23 72 22 94 94 Calm 30.09 1019 10 16.09344 0 0
2:35 am 02:35 Clear 72 22 70 21 94 94 Calm 30.09 1019 10 16.09344 0 0
2:55 am 02:55 Clear 72 22 72 22 100 100 Calm 30.09 1019 10 16.09344 0 0
3:15 am 03:15 Clear 72 22 72 22 100 100 Calm 30.09 1019 10 16.09344 0 0
3:35 am 03:35 Clear 72 22 72 22 100 100 Calm 30.09 1019 10 16.09344 0 0
3:55 am 03:55 Clear 72 22 72 22 100 100 Calm 30.06 1018 10 16.09344 0 0
4:15 am 04:15 Clear 70 21 70 21 100 100 Calm 30.06 1018 10 16.09344 0 0
4:35 am 04:35 Clear 70 21 70 21 100 100 Calm 30.06 1018 10 16.09344 0 0
4:55 am 04:55 Clear 70 21 70 21 100 100 Calm 30.06 1018 10 16.09344 0 0
5:15 am 05:15 Clear 70 21 70 21 100 100 Calm 30.06 1018 10 16.09344 0 0
5:35 am 05:35 Clear 70 21 70 21 100 100 Calm 30.06 1018 10 16.09344 0 0
5:55 am 05:55 Clear 70 21 70 21 100 100 Calm 30.06 1018 10 16.09344 0 0
6:15 am 06:15 Clear 70 21 70 21 100 100 Calm 30.06 1018 10 16.09344 0 0
6:35 am 06:35 Sunny 70 21 70 21 100 100 Calm 30.06 1018 10 16.09344 0 0
6:55 am 06:55 Sunny 70 21 70 21 100 100 Calm 30.06 1018 7 11.265408 0 0
7:15 am 07:15 Sunny 70 21 70 21 100 100 Calm 30.06 1018 7 11.265408 0 0
7:35 am 07:35 Sunny 70 21 70 21 100 100 Calm 30.06 1018 7 11.265408 0 0
7:55 am 07:55 Sunny 72 22 72 22 100 100 Calm 30.06 1018 10 16.09344 0 0
8:15 am 08:15 Sunny 73 23 72 22 94 94 Calm 30.06 1018 10 16.09344 0 0
8:35 am 08:35 Sunny 73 23 73 23 100 100 Calm 30.06 1018 10 16.09344 0 0
8:55 am 08:55 Sunny 75 24 73 23 94 94 Calm 30.06 1018 10 16.09344 0 0
9:15 am 09:15 Sunny 79 26 73 23 84 84 Calm 30.03 1017 10 16.09344 0 0
9:35 am 09:35 Sunny 81 27 75 24 84 84 S 5 7 30.03 1017 10 16.09344 0 0
9:55 am 09:55 Sunny 82 28 73 23 74 74 SSW 3 6 30.03 1017 10 16.09344 0 0
10:15 am 10:15 Sunny 82 28 75 24 79 79 Calm 30.03 1017 10 16.09344 0 0
10:35 am 10:35 Sunny 86 30 75 24 70 70 S 6 9 30.03 1017 10 16.09344 0 0
10:55 am 10:55 Sunny 86 30 75 24 70 70 S 3 6 30.03 1017 10 16.09344 0 0
11:15 am 11:15 Sunny 88 31 77 25 70 70 S 9 15 30 1016 10 16.09344 0 0
11:35 am 11:35 Sunny 88 31 77 25 70 70 SSE 8 13 29.97 1015 10 16.09344 0 0
11:55 am 11:55 Sunny 90 32 77 25 67 67 SSW 8 13 29.97 1015 10 16.09344 0 0
12:15 pm 12:15 Sunny 90 32 77 25 67 67 S 9 15 29.97 1015 10 16.09344 0 0
12:35 pm 12:35 Sunny 90 32 77 25 67 67 S 10 17 29.97 1015 10 16.09344 0 0
12:55 pm 12:55 Partly Cloudy 91 33 75 24 59 59 SSW 10 17 29.97 1015 10 16.09344 0 0
1:15 pm 13:15 Partly Cloudy 91 33 75 24 59 59 S 8 13 29.94 1014 10 16.09344 0 0
1:35 pm 13:35 Sunny 93 34 73 23 53 53 SSW 9 15 29.94 1014 10 16.09344 0 0
1:55 pm 13:55 Sunny 93 34 73 23 53 53 S 10 17 29.94 1014 10 16.09344 0 0
2:15 pm 14:15 Sunny 93 34 73 23 53 53 SSW 9 15 29.91 1013 10 16.09344 0 0
2:35 pm 14:35 Sunny 95 35 72 22 47 47 SSW 8 13 29.91 1013 10 16.09344 0 0
2:55 pm 14:55 Sunny 95 35 73 23 50 50 S 9 15 29.88 1012 10 16.09344 0 0
3:15 pm 15:15 Partly Cloudy 95 35 73 23 50 50 SSW 13 20 29.88 1012 10 16.09344 0 0
3:35 pm 15:35 Mostly Cloudy 93 34 73 23 53 53 S 14 22 29.88 1012 10 16.09344 0 0
3:55 pm 15:55 Partly Cloudy 95 35 73 23 50 50 S 16 26 29.85 1011 10 16.09344 0 0
4:15 pm 16:15 Partly Cloudy 95 35 73 23 50 50 SSW 12 19 29.85 1011 10 16.09344 0 0
4:35 pm 16:35 Sunny 95 35 72 22 47 47 SW 15 24 29.83 1010 10 16.09344 0 0
4:55 pm 16:55 Sunny 93 34 72 22 49 49 SSW 9 15 29.83 1010 10 16.09344 0 0
5:15 pm 17:15 Sunny 93 34 73 23 53 53 SSW 10 17 29.83 1010 10 16.09344 0 0
5:35 pm 17:35 Sunny 93 34 73 23 53 53 S 12 19 29.83 1010 10 16.09344 0 0
5:55 pm 17:55 Sunny 91 33 73 23 56 56 SSW 10 17 29.83 1010 10 16.09344 0 0
6:15 pm 18:15 Sunny 91 33 73 23 56 56 S 14 22 29.8 1009 10 16.09344 0 0
6:35 pm 18:35 Sunny 90 32 73 23 59 59 S 13 20 29.83 1010 10 16.09344 0 0
6:55 pm 18:55 Sunny 90 32 73 23 59 59 S 13 20 29.83 1010 10 16.09344 0 0
7:15 pm 19:15 Sunny 88 31 73 23 62 62 S 10 17 29.83 1010 10 16.09344 0 0
7:35 pm 19:35 Sunny 88 31 73 23 62 62 S 8 13 29.8 1009 10 16.09344 0 0
7:55 pm 19:55 Sunny 86 30 73 23 66 66 S 10 17 29.8 1009 10 16.09344 0 0
8:15 pm 20:15 Clear 86 30 73 23 66 66 S 13 20 29.8 1009 10 16.09344 0 0
8:35 pm 20:35 Clear 86 30 73 23 66 66 SSW 9 15 29.8 1009 10 16.09344 0 0
8:55 pm 20:55 Clear 84 29 73 23 70 70 SSW 10 17 29.8 1009 10 16.09344 0 0
9:15 pm 21:15 Clear 84 29 73 23 70 70 SSW 9 15 29.8 1009 10 16.09344 0 0
9:35 pm 21:35 Partly Cloudy 84 29 73 23 70 70 SW 8 13 29.8 1009 10 16.09344 0 0
9:55 pm 21:55 Partly Cloudy 82 28 73 23 74 74 Calm 29.83 1010 10 16.09344 0 0
10:15 pm 22:15 Clear 82 28 73 23 74 74 WNW 5 7 29.83 1010 10 16.09344 0 0
10:35 pm 22:35 Clear 82 28 73 23 74 74 W 3 6 29.83 1010 10 16.09344 0 0
10:55 pm 22:55 Clear 81 27 73 23 79 79 W 5 7 29.83 1010 10 16.09344 0 0
11:15 pm 23:15 Clear 81 27 73 23 79 79 WNW 5 7 29.83 1010 10 16.09344 0 0
11:35 pm 23:35 Mostly Cloudy 81 27 73 23 79 79 N 7 11 29.85 1011 10 16.09344 0 0
11:55 pm 23:55 Cloudy 81 27 72 22 74 74 NW 17 28 29.85 1011 10 16.09344 0 0

Powered by AerisWeather